Location: Newark
(7.0858°N, 171.3717°E)
Time: 12:48:09
(UTC+00:00)

N. Korean satellite - Pass Details

Date: 27 September 2021
Orbit: 450 x 495 km, 97.3° (Epoch: 23 October)

Event Time Altitude Azimuth Distance (km) Brightness Sun altitude
Rises 16:52:46 0° 34° (NE) 2,549 10.7 -23.2°
Reaches altitude 10° 16:55:14 10° 52° (NE) 1,676 10.0 -22.6°
Maximum altitude 16:57:55 20° 100° (E) 1,191 9.4 -21.9°
Drops below altitude 10° 17:00:38 10° 148° (SSE) 1,687 9.7 -21.3°
Sets 17:03:07 0° 166° (SSE) 2,572 10.4 -20.6°
